TimeEDT,TemperatureF,Dew PointF,Humidity,Sea Level PressureIn,VisibilityMPH,Wind Direction,Wind SpeedMPH,Gust SpeedMPH,PrecipitationIn,Events,Conditions,WindDirDegrees,DateUTC
12:53 AM,64.0,57.9,80,30.06,10.0,North,3.5,-,N/A,,Clear,10,2013-08-04 04:53:00
1:53 AM,63.0,57.9,84,30.06,10.0,Calm,Calm,-,N/A,,Clear,0,2013-08-04 05:53:00
2:53 AM,62.1,57.0,84,30.06,10.0,North,3.5,-,N/A,,Clear,350,2013-08-04 06:53:00
3:53 AM,62.1,52.0,70,30.07,10.0,North,5.8,-,N/A,,Clear,360,2013-08-04 07:53:00
4:53 AM,61.0,52.0,72,30.09,10.0,Calm,Calm,-,N/A,,Clear,0,2013-08-04 08:53:00
5:53 AM,59.0,52.0,78,30.09,10.0,WNW,4.6,-,N/A,,Clear,300,2013-08-04 09:53:00
6:53 AM,59.0,52.0,78,30.09,10.0,NNW,4.6,-,N/A,,Clear,330,2013-08-04 10:53:00
7:53 AM,61.0,52.0,72,30.11,10.0,NNW,5.8,-,N/A,,Clear,330,2013-08-04 11:53:00
8:53 AM,63.0,52.0,67,30.12,10.0,North,9.2,-,N/A,,Clear,360,2013-08-04 12:53:00
9:49 AM,64.4,51.8,64,30.13,10.0,NNW,10.4,-,N/A,,Mostly Cloudy,340,2013-08-04 13:49:00
9:53 AM,64.0,51.1,63,30.13,10.0,NNW,10.4,-,N/A,,Mostly Cloudy,340,2013-08-04 13:53:00
10:53 AM,66.0,51.1,59,30.13,10.0,NW,8.1,-,N/A,,Mostly Cloudy,320,2013-08-04 14:53:00
11:53 AM,69.1,52.0,54,30.15,10.0,North,9.2,-,N/A,,Scattered Clouds,350,2013-08-04 15:53:00
12:53 PM,72.0,52.0,49,30.15,10.0,North,11.5,16.1,N/A,,Scattered Clouds,360,2013-08-04 16:53:00
1:53 PM,72.0,52.0,49,30.14,10.0,North,13.8,-,N/A,,Scattered Clouds,360,2013-08-04 17:53:00
2:53 PM,73.0,51.1,46,30.13,10.0,NW,9.2,-,N/A,,Scattered Clouds,310,2013-08-04 18:53:00
3:53 PM,73.9,50.0,43,30.12,10.0,North,4.6,-,N/A,,Partly Cloudy,10,2013-08-04 19:53:00
4:53 PM,72.0,52.0,49,30.11,10.0,NNE,6.9,-,N/A,,Overcast,20,2013-08-04 20:53:00
5:53 PM,73.0,52.0,48,30.12,10.0,NNE,8.1,-,N/A,,Mostly Cloudy,20,2013-08-04 21:53:00
6:53 PM,69.1,55.0,61,30.12,10.0,ENE,9.2,-,N/A,,Overcast,70,2013-08-04 22:53:00
7:53 PM,66.9,51.1,57,30.13,10.0,East,10.4,-,N/A,,Overcast,90,2013-08-04 23:53:00
8:53 PM,64.9,50.0,58,30.14,10.0,East,4.6,-,N/A,,Mostly Cloudy,90,2013-08-05 00:53:00
9:53 PM,63.0,50.0,63,30.15,10.0,East,3.5,-,N/A,,Clear,90,2013-08-05 01:53:00
10:53 PM,63.0,50.0,63,30.14,10.0,Calm,Calm,-,N/A,,Clear,0,2013-08-05 02:53:00
11:53 PM,61.0,50.0,67,30.12,10.0,Calm,Calm,-,N/A,,Clear,0,2013-08-05 03:53:00